Retour au catalogue

COSMOS 1275 DEB

ActifPO
NORAD 13018·DEBRIS·🇷🇺 Russia

Lancé Jun 4, 1981 depuis Plesetsk Cosmodrome

Loading…

Prochains Passages (prochaines 24 heures)

TLE

FraisSource: Space-Track

Époque: Sep 14, 2026, 02:09 UTC

1 13018U 81053EQ  26257.09016638  .00000783  00000-0  54940-3 0  9998
2 13018  82.6713 292.0139 0048799  32.9617 356.4269 13.96570189257641

Suivez COSMOS 1275 DEB en temps réel avec AllMySat

Download on the App Store